Weather History for Manassas, VA

Change the Weather History Date:

Monday, November 19, 2012

  Actual Average Record
Temperature  
Mean Temperature 45 °F -  
Max Temperature 53 °F 54 °F 71 °F (2001)
Min Temperature 37 °F 30 °F 15 °F (2014)
Degree Days  
Heating Degree Days 20    
Moisture  
Dew Point 39 °F    
Average Humidity 80    
Maximum Humidity 100    
Minimum Humidity 58    
Precipitation  
Precipitation 0.00 in - - ()
Sea Level Pressure  
Sea Level Pressure 30.38 in    
Wind  
Wind Speed 6 mph (North)    
Max Wind Speed 13 mph    
Max Gust Speed 17 mph    
Visibility 10 miles    
Events      
Averages and records for this station are not official NWS values.
T = Trace of Precipitation, MM = Missing Value Source: NWS Daily Summary

Daily Weather History Graph

Daily Weather History Graph

Search for Another Location

Airport:

Trip Planner

Search our weather history database for the weather conditions in past years. The results will help you decide how hot, cold, wet, or windy it might be!

Date:

Astronomy

Nov. 19, 2012 Rise Set
Actual Time 6:57 AM EST 4:53 PM EST
Civil Twilight 6:28 AM EST 5:22 PM EST
Nautical Twilight 5:56 AM EST 5:54 PM EST
Astronomical Twilight 5:24 AM EST 6:26 PM EST
Moon 12:00 PM EST (11/19) 11:16 PM EST (11/19)
Length of Visible Light 10h 53m
Length of Day
9h 56m
Waxing Crescent, 40% of the Moon is Illuminated
Nov 19
Waxing Crescent
Nov 20
First Quarter
Nov 28
Full
Dec 6
Last Quarter
Dec 13
New

Hourly Weather History & Observations

Time (EST) Temp. Windchill Dew Point Humidity Pressure Visibility Wind Dir Wind Speed Gust Speed Precip Events Conditions
12:15 AM 46.4 °F 42.9 °F 39.2 °F 76% 30.50 in 10.0 mi North 6.9 mph - N/A   Overcast
12:35 AM 46.4 °F 43.5 °F 39.2 °F 76% 30.49 in 10.0 mi North 5.8 mph - N/A   Overcast
12:55 AM 46.4 °F 44.3 °F 39.2 °F 76% 30.48 in 10.0 mi North 4.6 mph - N/A   Overcast
1:15 AM 46.4 °F 42.9 °F 39.2 °F 76% 30.48 in 10.0 mi North 6.9 mph - N/A   Overcast
1:35 AM 44.6 °F 40.7 °F 39.2 °F 81% 30.47 in 10.0 mi North 6.9 mph - N/A   Overcast
1:55 AM 46.4 °F 43.5 °F 39.2 °F 76% 30.48 in 10.0 mi North 5.8 mph - N/A   Overcast
2:15 AM 46.4 °F 42.9 °F 39.2 °F 76% 30.48 in 10.0 mi North 6.9 mph - N/A   Overcast
2:35 AM 46.4 °F 42.9 °F 39.2 °F 76% 30.48 in 10.0 mi North 6.9 mph - N/A   Overcast
2:55 AM 46.4 °F 42.9 °F 39.2 °F 76% 30.48 in 10.0 mi North 6.9 mph - N/A   Overcast
3:15 AM 46.4 °F 42.9 °F 39.2 °F 76% 30.47 in 10.0 mi North 6.9 mph - N/A   Overcast
3:35 AM 46.4 °F 43.5 °F 39.2 °F 76% 30.46 in 10.0 mi North 5.8 mph - N/A   Overcast
3:55 AM 46.4 °F 42.9 °F 39.2 °F 76% 30.45 in 10.0 mi North 6.9 mph - N/A   Overcast
4:15 AM 46.4 °F 42.4 °F 39.2 °F 76% 30.45 in 10.0 mi North 8.1 mph - N/A   Overcast
4:35 AM 44.6 °F 40.2 °F 39.2 °F 81% 30.45 in 10.0 mi NNW 8.1 mph - N/A   Overcast
4:55 AM 44.6 °F 40.2 °F 39.2 °F 81% 30.45 in 10.0 mi North 8.1 mph - N/A   Overcast
5:15 AM 44.6 °F 41.4 °F 39.2 °F 81% 30.45 in 10.0 mi North 5.8 mph - N/A   Overcast
5:35 AM 44.6 °F 40.7 °F 39.2 °F 81% 30.46 in 10.0 mi North 6.9 mph - N/A   Overcast
5:55 AM 44.6 °F 40.2 °F 39.2 °F 81% 30.45 in 10.0 mi North 8.1 mph - N/A   Overcast
6:15 AM 44.6 °F 40.7 °F 39.2 °F 81% 30.45 in 10.0 mi North 6.9 mph - N/A   Overcast
6:35 AM 44.6 °F 40.2 °F 39.2 °F 81% 30.45 in 10.0 mi North 8.1 mph - N/A   Overcast
6:55 AM 44.6 °F 40.2 °F 39.2 °F 81% 30.45 in 10.0 mi North 8.1 mph - N/A   Overcast
7:15 AM 44.6 °F 40.7 °F 39.2 °F 81% 30.45 in 10.0 mi North 6.9 mph - N/A   Overcast
7:35 AM 44.6 °F 40.7 °F 39.2 °F 81% 30.44 in 10.0 mi North 6.9 mph - N/A   Overcast
7:50 AM 44.6 °F 41.4 °F 39.2 °F 81% 30.44 in 10.0 mi NNE 5.8 mph - N/A   Overcast
8:55 AM 46.4 °F 42.4 °F 39.2 °F 76% 30.45 in 10.0 mi North 8.1 mph - N/A   Overcast
9:50 AM 48.2 °F - 39.2 °F 71% 30.43 in 10.0 mi NNE 9.2 mph - N/A   Overcast
10:45 AM 48.2 °F - 39.2 °F 71% 30.42 in 10.0 mi North 8.1 mph - N/A   Overcast
11:50 AM 51.8 °F - 39.2 °F 62% 30.40 in 10.0 mi North 12.7 mph 17.3 mph N/A   Overcast
12:50 PM 51.8 °F - 39.2 °F 62% 30.35 in 10.0 mi NE 10.4 mph 16.1 mph N/A   Overcast
1:50 PM 53.6 °F - 39.2 °F 58% 30.33 in 10.0 mi North 10.4 mph - N/A   Overcast
2:45 PM 53.6 °F - 39.2 °F 58% 30.32 in 10.0 mi North 9.2 mph - N/A   Overcast
4:45 PM 50.0 °F - 39.2 °F 66% 30.30 in 10.0 mi North 8.1 mph - N/A   Mostly Cloudy
5:45 PM 46.4 °F 43.5 °F 39.2 °F 76% 30.30 in 10.0 mi North 5.8 mph - N/A   Overcast
6:45 PM 46.4 °F 43.5 °F 39.2 °F 76% 30.30 in 10.0 mi NNE 5.8 mph - N/A   Clear
6:55 PM 44.6 °F 42.2 °F 39.2 °F 81% 30.31 in 10.0 mi North 4.6 mph - N/A   Clear
7:15 PM 42.8 °F 40.1 °F 39.2 °F 87% 30.30 in 10.0 mi North 4.6 mph - N/A   Clear
7:35 PM 44.6 °F 41.4 °F 39.2 °F 81% 30.29 in 10.0 mi North 5.8 mph - N/A   Clear
7:55 PM 42.8 °F 40.1 °F 39.2 °F 87% 30.29 in 10.0 mi North 4.6 mph - N/A   Clear
8:15 PM 41.0 °F 38.0 °F 37.4 °F 87% 30.28 in 10.0 mi North 4.6 mph - N/A   Clear
8:35 PM 42.8 °F 40.1 °F 39.2 °F 87% 30.28 in 10.0 mi North 4.6 mph - N/A   Mostly Cloudy
8:55 PM 44.6 °F - 39.2 °F 81% 30.28 in 10.0 mi Calm Calm - N/A   Overcast
9:15 PM 42.8 °F 40.1 °F 39.2 °F 87% 30.27 in 10.0 mi North 4.6 mph - N/A   Mostly Cloudy
9:35 PM 41.0 °F - 37.4 °F 87% 30.26 in 10.0 mi Calm Calm - N/A   Partly Cloudy
10:15 PM 37.4 °F 34.9 °F 35.6 °F 93% 30.26 in 10.0 mi NW 3.5 mph - N/A   Clear
10:35 PM 37.4 °F - 37.4 °F 100% 30.25 in 10.0 mi Calm Calm - N/A   Scattered Clouds
10:55 PM 37.4 °F - 35.6 °F 93% 30.26 in 10.0 mi Calm Calm - N/A   Scattered Clouds
11:15 PM 37.4 °F - 37.4 °F 100% 30.25 in 10.0 mi Calm Calm - N/A   Partly Cloudy
11:35 PM 37.4 °F - 37.4 °F 100% 30.24 in 10.0 mi Calm Calm - N/A   Clear
11:55 PM 37.4 °F 34.9 °F 35.6 °F 93% 30.24 in 10.0 mi NW 3.5 mph - N/A   Clear